Weather in Starachowice

Poland     51°02′55″N   21°03′58″E
temp.,
°C
wind,
m/s
gust,
m/s
humid.,
%
clouds,
%
prec.,
mm/h
press.,
hPa
HPBL,
m
17 may, mon
mon1723:00+9ssw26965 0.0 1006113
02:00+8ssw23960 0.0 100652
05:00+7sw22930 0.0 100624
08:00+13sse23780 0.0 1005265
11:00+17sse34526 0.0 10051441
14:00+19sse334537 0.0 10042031
17:00+17se2362100 0.0 1002144
20:00+13wnw2279100 0.3 100368
18 may, tue
tue1823:00+11nnw259785 0.9 1003219
02:00+10wnw4798100 1.8 1003485
05:00+9nw61295100 1.2 1004614
08:00+9nw61195100 1.6 1005586
11:00+11nw51087100 0.2 1006877
14:00+11wnw51087100 0.4 1007884
17:00+11wnw51188100 0.3 1007824
20:00+11wnw5118898 0.4 1008684
19 may, wed
wed1923:00+10wnw51192100 0.0 1009556
02:00+8w4109751 0.0 1010393
05:00+7wnw4129717 0.0 1010383
08:00+10wnw588480 0.0 1012581
11:00+15wnw565865 0.1 10111501
14:00+15wnw4554100 0.2 10111656
17:00+15nw4459100 0.4 10121222
20:00+10nw2687100 0.8 1012167
20 may, thu
thu2023:00+9wnw2395100 0.0 101355
02:00+7nw2398100 0.0 101353
05:00+7n3997100 0.1 1014321
08:00+8n4980100 0.1 1015411
11:00+12nnw5760100 0.0 10151109
14:00+14nnw6752100 0.0 10151722
17:00+14nnw5850100 0.0 10151759
20:00+12nw51070100 0.0 1016562
21 may, fri
fri2123:00+9nw4118954 0.0 1017449
02:00+7nw389752 0.1 1019334
05:00+5wnw389817 0.1 1020231
08:00+10wnw47695 0.1 1020921
11:00+14wnw474976 0.1 10192057
14:00+14w4649100 0.3 10181844
17:00+14wnw2547100 0.1 10171933
20:00+10w11765 0.3 101710